Flag for Switzerland Weather past 2 weeks in Yverdon-les-Bains, Vaud, Switzerland

Now
54 °F

Cool.


Feels Like: 54 °F
Forecast: 42 / 64 °F
Wind: 2 mph from East

Location: Payerne

Current Time: Sep 22, 2014 at 8:13:11 AM

Latest Report: Sep 22, 2014 at 7:00 AM


Visibility: N/A

Pressure: 30.11 "Hg

Humidity: 96%

Dew point: 53 °F

Location of Yverdon-les-BainsLocation

Historic Weather in Yverdon-les-Bains — Graph

°F

Yverdon-les-Bains temperature yesterday

Maximum temperature yesterday: 72 °F (at 3:00 PM)
Minimum temperature yesterday: 57 °F (at 3:00 AM)
Average temperature yesterday: 62 °F

Past Weeks' High & Low Weather Summary

 TemperatureHumidityPressure
High78 °F (Sep 7, 6:00 PM)99% (Sep 10, 2:00 AM)30.13 "Hg (Sep 10, 2:00 AM)
Low46 °F (Sep 12, 7:00 AM)47% (Sep 7, 6:00 PM)29.80 "Hg (Sep 17, 5:00 PM)
Average61 °F83%29.98 "Hg
* Reported Sep 7 6:00 AM — Sep 22 6:00 AM, Yverdon-les-Bains, Weather by CustomWeather, © 2014

Note: Actual official high and low records may vary slightly from our data, if they occured in-between our weather recording intervals... More about our weather records

Advertising

Yverdon-les-Bains weather history for previous 24 hours

 ConditionsComfort  
Time TempWeatherWind HumidityBarometerVisibility
6:00 AM
Sep 22
55 °FCool.1 mph91%30.10 "HgN/A
5:00 AM56 °FCool.1 mph96%30.10 "HgN/A
4:00 AM56 °FCool.3 mph95%30.09 "HgN/A
3:00 AM56 °FCool.No wind94%30.10 "HgN/A
2:00 AM57 °FPassing clouds.3 mph94%30.09 "Hg16 mi
1:00 AM58 °FCool.3 mph92%30.08 "HgN/A
12:00 AM58 °FCool.6 mph93%30.09 "HgN/A
11:00 PM
Sep 21
58 °FPassing clouds.5 mph94%30.08 "Hg11 mi
10:00 PM58 °FCool.3 mph96%30.09 "HgN/A
9:00 PM58 °FCool.6 mph95%30.09 "HgN/A
8:00 PM59 °FOvercast.8 mph86%30.07 "Hg11 mi
7:00 PM61 °FCool.5 mph78%30.05 "HgN/A
6:00 PM62 °FCool.10 mph73%30.03 "HgN/A
5:00 PM62 °FCool.9 mph74%30.02 "HgN/A
4:00 PM68 °FMild.8 mph62%29.98 "HgN/A
3:00 PM72 °FMild.12 mph55%29.96 "HgN/A
2:00 PM70 °FOvercast.8 mph57%29.98 "Hg16 mi
1:00 PM72 °FMild.10 mph59%29.98 "HgN/A
12:00 PM67 °FMild.3 mph78%30.02 "HgN/A
11:00 AM65 °FFog.2 mph86%30.04 "Hg9 mi
10:00 AM62 °FCool.2 mph93%30.04 "HgN/A
9:00 AM58 °FCool.1 mph99%30.06 "HgN/A
8:00 AM58 °FFog.1 mph99%30.06 "Hg3 mi
Weather by CustomWeather, © 2014

See weather overviewHow to use our weather pages